Weather History for Gillette, WY

Change the Weather History Date:

Monday, January 7, 2013

  Actual Average Record
Temperature  
Mean Temperature 24 °F 26 °F  
Max Temperature 35 °F 37 °F - ()
Min Temperature 12 °F 14 °F - ()
Degree Days  
Heating Degree Days 41 39  
Month to date heating degree days 294 278  
Since 1 July heating degree days 3134 3419  
Cooling Degree Days 0 0  
Month to date cooling degree days 0 0  
Year to date cooling degree days 0 0  
Moisture  
Dew Point 17 °F    
Average Humidity 68    
Maximum Humidity 84    
Minimum Humidity 51    
Precipitation  
Precipitation 0.00 in 0.01 in - ()
Month to date precipitation 0.04 0.07  
Year to date precipitation 0.04 0.07  
Sea Level Pressure  
Sea Level Pressure 29.89 in    
Wind  
Wind Speed 5 mph (SSW)    
Max Wind Speed 18 mph    
Max Gust Speed 25 mph    
Visibility 10 miles    
Events      
T = Trace of Precipitation, MM = Missing Value Source: NWS Daily Summary

Daily Weather History Graph

Daily Weather History Graph

Search for Another Location

Airport:

Trip Planner

Search our weather history database for the weather conditions in past years. The results will help you decide how hot, cold, wet, or windy it might be!

Date:

Astronomy

Jan. 07, 2013 Rise Set
Actual Time 7:37 AM MST 4:39 PM MST
Civil Twilight 7:04 AM MST 5:12 PM MST
Nautical Twilight 6:28 AM MST 5:49 PM MST
Astronomical Twilight 5:53 AM MST 6:24 PM MST
Moon 3:01 AM MST (1/7) 12:54 PM MST (1/7)
Length of Visible Light 10h 08m
Length of Day
9h 02m
Waning Crescent, 22% of the Moon is Illuminated
Jan 7
Waning Crescent
Jan 11
New
Jan 18
First Quarter
Jan 26
Full
Feb 3
Last Quarter

Hourly Weather History & Observations

Time (MST) Temp. Windchill Dew Point Humidity Pressure Visibility Wind Dir Wind Speed Gust Speed Precip Events Conditions
12:53 AM 25.0 °F 20.7 °F 16.0 °F 69% 29.96 in 10.0 mi West 3.5 mph - N/A   Partly Cloudy
1:53 AM 25.0 °F 19.3 °F 15.1 °F 66% 29.98 in 10.0 mi SW 4.6 mph - N/A   Clear
2:53 AM 18.0 °F - 10.9 °F 74% 30.01 in 10.0 mi Calm Calm - N/A   Clear
3:53 AM 19.0 °F 11.1 °F 12.0 °F 74% 30.01 in 10.0 mi SSW 5.8 mph - N/A   Clear
4:53 AM 21.0 °F 11.4 °F 12.0 °F 68% 30.01 in 10.0 mi WSW 8.1 mph - N/A   Clear
5:53 AM 19.0 °F 11.1 °F 12.0 °F 74% 30.03 in 10.0 mi SSW 5.8 mph - N/A   Clear
6:53 AM 21.9 °F 14.5 °F 12.9 °F 68% 30.02 in 10.0 mi SSW 5.8 mph - N/A   Clear
7:53 AM 21.9 °F 14.5 °F 12.9 °F 68% 30.04 in 10.0 mi South 5.8 mph - N/A   Clear
8:53 AM 28.0 °F 18.6 °F 15.1 °F 58% 30.03 in 10.0 mi SSW 10.4 mph - N/A   Clear
9:53 AM 28.9 °F 19.2 °F 17.1 °F 61% 30.02 in 10.0 mi SSW 11.5 mph - N/A   Clear
10:53 AM 33.1 °F - 18.0 °F 54% 29.98 in 10.0 mi Calm Calm - N/A   Clear
11:53 AM 35.6 °F 27.5 °F 21.2 °F 56% 29.85 in 10.0 mi South 11.5 mph - N/A   Clear
12:53 PM 35.1 °F 28.6 °F 21.0 °F 57% 29.90 in 10.0 mi SE 8.1 mph - N/A   Clear
1:53 PM 35.1 °F 29.3 °F 21.0 °F 57% 29.88 in 10.0 mi SSE 6.9 mph - N/A   Clear
2:53 PM 33.1 °F 27.7 °F 21.9 °F 64% 29.89 in 10.0 mi South 5.8 mph - N/A   Clear
3:53 PM 33.8 °F - 21.2 °F 60% 29.77 in 10.0 mi Calm Calm - N/A   Clear
4:53 PM 23.0 °F - 17.1 °F 78% 29.88 in 10.0 mi Calm Calm - N/A   Clear
5:53 PM 18.0 °F 8.7 °F 14.0 °F 84% 29.87 in 10.0 mi South 6.9 mph - N/A   Clear
6:53 PM 27.0 °F - 18.0 °F 69% 29.81 in 10.0 mi Calm Calm - N/A   Partly Cloudy
7:22 PM 30.2 °F 19.8 °F 19.4 °F 64% 29.70 in 10.0 mi South 13.8 mph - N/A   Overcast
7:53 PM 32.0 °F 22.5 °F 19.9 °F 61% 29.78 in 10.0 mi SSW 12.7 mph - N/A   Overcast
8:53 PM 32.0 °F 27.5 °F 19.0 °F 59% 29.74 in 10.0 mi SE 4.6 mph - N/A   Overcast
9:53 PM 33.1 °F 30.0 °F 18.0 °F 54% 29.72 in 10.0 mi SSW 3.5 mph - N/A   Overcast
10:53 PM 30.9 °F 27.5 °F 19.9 °F 64% 29.73 in 10.0 mi West 3.5 mph - N/A   Overcast
11:53 PM 30.9 °F 26.2 °F 19.0 °F 61% 29.72 in 10.0 mi WSW 4.6 mph - N/A   Overcast